Back to catalog

STARLINK-4339

AliveCommunicationsSSO
NORAD 53054·PAYLOAD·🇺🇸 United States

Launched Jul 11, 2022 from Vandenberg Space Force Base

Loading…

Next Passes (next 24 hours)

TLE

FreshSource: CelesTrak SupGP

Epoch: Sep 14, 2026, 20:46 UTC

1 53054C 22077M   26257.86576389  .00083587  00000+0  25903-2 0  2577
2 53054  97.2856  73.6430 0001230  99.1742 238.0522 15.33452135    12

Track STARLINK-4339 in real time with AllMySat

Download on the App Store